Location: Novokuznetsk
(53.7500°N, 87.1000°E)
Time: 02:22:55
(UTC+06:00)

ISS - Pass Details

Date: 16 July 2018
Orbit: 402 x 408 km, 51.6° (Epoch: 20 July)

Event Time Altitude Azimuth Distance (km) Brightness Sun altitude
Exits shadow 01:54:01 - 255° (WSW) 1,534 -1.3 -12.0°
Reaches altitude 10° 01:54:11 10° 255° (WSW) 1,468 -1.4 -12.0°
Maximum altitude 01:57:26 59° 176° (S) 478 -3.8 -11.8°
Drops below altitude 10° 02:00:41 10° 95° (E) 1,472 -0.7 -11.6°
Sets 02:02:47 0° 92° (E) 2,334 0.4 -11.5°
